Location: Mohawk View
(42.7837°N, 73.7885°W)
Time: 00:27:23
(UTC+00:00)

BREEZE-M DEB (TANK) - Pass Details

Date: 17 June 2021
Orbit: 318 x 12038 km, 49.6° (Epoch: 02 August)

Event Time Altitude Azimuth Distance (km) Brightness Sun altitude
Rises 01:25:46 0° 206° (SSW) 2,163 5.0 -8.0°
Reaches altitude 10° 01:27:55 10° 185° (S) 1,216 3.5 -8.3°
Maximum altitude 01:29:39 19° 134° (SE) 894 2.6 -8.6°
Drops below altitude 10° 01:31:45 10° 84° (E) 1,499 4.0 -8.8°
Sets 01:34:53 0° 66° (ENE) 2,974 5.6 -9.3°
